[[{"header":{"parameterUnit":"m.s-1","parameterCategory":1,"la1":30.2991,"la2":30.254,"lo1":-89.0895,"lo2":-89.0444,"dy":0.0017,"dx":0.0017,"nx":28,"ny":28,"refTime":"2025-07-28T03:00:00:Z","depth":0,"parameterNumber":2,"parameterNumberName":"U-component_of_WINDS"},"data":[0,0,0,0,0,0,0,0,0,0,0,0,0,0,0,0,0,0,0,0,0,0,0,0,0,0,0,0,0,0,0,0,0,0,0,0,0,0,0,0,0,0,0,0,0,0,0,0,0,0,0,0,0,0,0,0,0,0,1.4253,1.4252,0,1.4222,1.4222,1.4221,1.4167,1.4166,1.4165,1.4164,1.4131,1.4131,1.4131,0,0,0,0,0,0,0,0,0,0,0,0,0,1.4265,1.4265,1.4253,1.4252,1.4252,1.4222,1.4222,1.4221,1.4168,1.4166,1.4165,1.4164,1.4131,1.4131,1.4131,0,0,0,0,0,0,0,0,0,0,0,0,0,1.4249,1.4265,1.4253,1.4222,1.4218,1.4222,1.4222,1.4221,1.4168,1.4166,1.4165,1.4163,1.4131,1.4131,1.4131,1.4163,0,0,1.4132,1.4132,0,0,0,0,0,0,0,0,1.425,1.4249,1.4226,1.4224,1.422,1.4197,1.4214,1.4201,1.4168,1.4187,1.4164,1.4163,1.4154,1.4152,1.415,1.4161,1.416,1.4132,1.4132,1.4132,1.4132,0,0,0,0,0,0,0,1.4251,1.425,1.424,1.4226,1.4222,1.4209,1.4205,1.4211,1.4179,1.4185,1.4181,1.4178,1.4152,1.415,1.4149,1.4159,1.4132,1.4132,1.4132,1.4132,1.4197,1.4199,0,0,0,0,0,0,1.4257,1.4251,1.4241,1.4239,1.4232,1.421,1.4206,1.4206,1.4179,1.4174,1.418,1.4176,1.4151,1.4149,1.4147,1.4184,1.4132,1.4132,1.4132,1.4196,1.4198,1.42,0,0,0,0,0,0,1.4258,1.4257,1.4243,1.4244,1.4241,1.4212,1.4212,1.4206,1.4204,1.4175,1.4169,1.4183,1.4149,1.4147,1.416,1.4182,1.4132,1.4132,1.4194,1.4196,1.4199,1.4258,0,0,0,0,0,0,1.4258,1.4257,1.4269,1.4245,1.4242,1.4256,1.4213,1.4207,1.4204,1.4199,1.4177,1.4172,1.4148,1.416,1.416,1.4182,1.4132,1.4192,1.4195,1.4198,1.4253,1.4262,1.4269,0,0,0,0,0,1.4259,1.4285,1.4269,1.4268,1.4255,1.4257,1.4255,1.4228,1.4206,1.4218,1.42,1.4172,1.418,1.4162,1.4161,1.4183,1.419,1.4194,1.4198,1.425,1.426,1.4269,0,0,0,0,0,0,1.4311,1.4281,1.4264,1.4283,1.4274,1.4248,1.4262,1.4239,1.4234,1.423,1.4195,1.4191,1.4209,1.4197,1.4178,1.4214,1.4181,1.4185,1.4221,1.423,1.4238,1.4241,1.4132,0,0,0,0,0,1.4325,1.4329,1.4303,1.4323,1.4319,1.4292,1.4291,1.4272,1.426,1.4255,1.4237,1.4227,1.4227,1.4228,1.4226,1.4251,1.4247,1.4266,1.4274,1.428,1.4285,1.43,1.4309,1.4212,1.4212,1.4212,0,0,1.4354,1.4338,1.4343,1.4333,1.4323,1.4329,1.4288,1.4295,1.43,1.4255,1.4268,1.4255,1.4241,1.4261,1.4269,1.4251,1.431,1.4285,1.4291,1.4291,1.4305,1.4314,1.4322,1.4215,1.4214,1.4214,0,0,1.4409,1.4397,1.4414,1.4405,1.4391,1.4373,1.4377,1.4356,1.4347,1.4358,1.4326,1.433,1.433,1.4323,1.4319,1.4375,1.435,1.4375,1.4415,1.4431,1.4438,1.4445,1.4467,1.4475,1.4379,1.4379,1.4379,0,1.4447,1.4454,1.4425,1.4436,1.4433,1.4395,1.4412,1.4405,1.4391,1.4391,1.4371,1.4373,1.436,1.438,1.4394,1.4391,1.4396,1.4377,1.444,1.4446,1.4452,1.4472,1.4481,1.4382,1.4382,1.4381,1.4381,0,1.4502,1.4508,1.4524,1.4513,1.4512,1.4526,1.4499,1.4502,1.4482,1.4467,1.448,1.4464,1.446,1.4463,1.4443,1.448,1.447,1.4446,1.4412,1.4465,1.4484,1.4491,1.4387,1.4386,1.4385,1.4384,0,0,1.459,1.4564,1.457,1.4566,1.4549,1.4553,1.4566,1.4563,1.4567,1.4559,1.457,1.4572,1.4551,1.4546,1.4525,1.4538,1.4587,1.4513,1.4512,1.4529,1.463,1.4649,1.4659,1.457,1.4571,1.4573,1.4632,0,1.4643,1.4664,1.4639,1.4666,1.4672,1.4637,1.4648,1.4639,1.4625,1.4629,1.4612,1.4616,1.4586,1.4584,1.4595,1.4579,1.4607,1.4574,1.4581,1.4582,1.4588,1.4668,1.4689,1.4745,1.4638,1.464,1.4641,0,1.4708,1.4705,1.4733,1.4717,1.4718,1.4729,1.4726,1.4729,1.4719,1.4708,1.4704,1.468,1.4692,1.466,1.4677,1.4655,1.4656,1.4649,1.4651,1.4651,1.4615,1.4673,1.4762,1.4771,1.4651,1.4651,1.465,0,1.4772,1.4775,1.4792,1.4789,1.477,1.4779,1.4771,1.4759,1.476,1.4757,1.4757,1.4755,1.4755,1.4754,1.473,1.4708,1.4751,1.4716,1.4744,1.4745,1.4755,1.4755,1.4847,1.4753,1.4753,1.4753,1.4753,0,1.4835,1.4854,1.4821,1.4832,1.4853,1.4824,1.4846,1.4834,1.4825,1.4833,1.4802,1.4811,1.4778,1.4784,1.4765,1.4784,1.4783,1.4775,1.477,1.4779,1.478,1.478,1.4777,1.4755,1.4755,1.4754,1.4754,0,1.4911,1.4889,1.4906,1.4887,1.4883,1.49,1.4883,1.4893,1.4878,1.4889,1.489,1.4866,1.4871,1.4848,1.4848,1.4836,1.4865,1.4852,1.4869,1.4866,1.4896,1.4894,1.4993,1.5005,1.4902,1.4903,1.4903,0,1.4953,1.4967,1.4951,1.4955,1.4949,1.4956,1.4957,1.493,1.4932,1.4923,1.4935,1.4938,1.4939,1.4949,1.4932,1.4933,1.4921,1.4956,1.4921,1.493,1.4924,1.4925,1.4927,1.4963,1.4964,1.4966,1.4966,0,1.5032,1.5022,1.5025,1.5025,1.5028,1.5027,1.5023,1.5028,1.4999,1.5004,1.5009,1.5011,1.5012,1.5017,1.5014,1.5006,1.4983,1.4977,1.4984,1.4994,1.5004,1.5002,1.4891,1.4975,1.4975,1.4974,1.4973,1.4973,1.5094,1.5106,1.5097,1.5102,1.5097,1.5095,1.5105,1.5091,1.5096,1.5096,1.5079,1.5089,1.508,1.5075,1.507,1.5078,1.5061,1.5071,1.5074,1.5077,1.5083,1.5002,1.5077,1.5076,1.5076,1.5076,1.5076,0,1.5174,1.5167,1.5172,1.5169,1.5174,1.5151,1.5147,1.5152,1.5161,1.5156,1.5158,1.5166,1.517,1.5154,1.5156,1.5166,1.5155,1.5167,1.5167,1.5166,1.5096,1.5091,1.5176,1.5176,1.5176,1.5176,1.5176,1.5176,1.5216,1.5236,1.5224,1.5242,1.5234,1.5245,1.5244,1.5243,1.5239,1.5249,1.5253,1.5243,1.5233,1.5235,1.5239,1.5234,1.5237,1.5254,1.5245,1.5181,1.5171,1.5162,1.5157,1.5254,1.5254,1.5315,1.5315,1.5316]},{"header":{"parameterUnit":"m.s-1","parameterCategory":1,"la1":30.2991,"la2":30.254,"lo1":-89.0895,"lo2":-89.0444,"dy":0.0017,"dx":0.0017,"nx":28,"ny":28,"refTime":"2025-07-28T03:00:00:Z","depth":0,"parameterNumber":3,"parameterNumberName":"V-component_of_WINDS"},"data":[0,0,0,0,0,0,0,0,0,0,0,0,0,0,0,0,0,0,0,0,0,0,0,0,0,0,0,0,0,0,0,0,0,0,0,0,0,0,0,0,0,0,0,0,0,0,0,0,0,0,0,0,0,0,0,0,0,0,-3.5311,-3.531,0,-3.5219,-3.5218,-3.5217,-3.5181,-3.5182,-3.5182,-3.5182,-3.5078,-3.5075,-3.5072,0,0,0,0,0,0,0,0,0,0,0,0,0,-3.5449,-3.5447,-3.5311,-3.531,-3.5309,-3.522,-3.5218,-3.5217,-3.5181,-3.5182,-3.5182,-3.5182,-3.5079,-3.5076,-3.5072,0,0,0,0,0,0,0,0,0,0,0,0,0,-3.5376,-3.5446,-3.5311,-3.5281,-3.5277,-3.522,-3.5218,-3.5217,-3.5181,-3.5182,-3.5182,-3.5183,-3.508,-3.5076,-3.5071,-3.5035,0,0,-3.5057,-3.5056,0,0,0,0,0,0,0,0,-3.5381,-3.5371,-3.5286,-3.5283,-3.5279,-3.5213,-3.5229,-3.5155,-3.5181,-3.5217,-3.5182,-3.5183,-3.5122,-3.5114,-3.5095,-3.503,-3.5026,-3.5057,-3.5054,-3.5052,-3.5051,0,0,0,0,0,0,0,-3.5386,-3.5375,-3.5275,-3.5285,-3.528,-3.5269,-3.5259,-3.5215,-3.5168,-3.5214,-3.5211,-3.5202,-3.512,-3.51,-3.5093,-3.5024,-3.5057,-3.5053,-3.505,-3.5049,-3.4928,-3.4928,0,0,0,0,0,0,-3.5397,-3.538,-3.5277,-3.5272,-3.5332,-3.5267,-3.5256,-3.5233,-3.5168,-3.5159,-3.5201,-3.52,-3.5107,-3.5098,-3.5089,-3.5045,-3.5052,-3.5048,-3.5046,-3.4929,-3.4928,-3.4927,0,0,0,0,0,0,-3.54,-3.5388,-3.5281,-3.5325,-3.5311,-3.5264,-3.5239,-3.5231,-3.5211,-3.5159,-3.515,-3.519,-3.5107,-3.5095,-3.505,-3.504,-3.5046,-3.5042,-3.4929,-3.4928,-3.4928,-3.4954,0,0,0,0,0,0,-3.5404,-3.539,-3.5376,-3.5325,-3.5309,-3.5246,-3.5238,-3.5229,-3.5205,-3.5203,-3.5146,-3.5137,-3.5107,-3.5057,-3.5046,-3.5034,-3.5038,-3.493,-3.4929,-3.4928,-3.4954,-3.4954,-3.4955,0,0,0,0,0,-3.5409,-3.5384,-3.5376,-3.5364,-3.5292,-3.5245,-3.5236,-3.5205,-3.5204,-3.519,-3.5157,-3.5139,-3.5044,-3.5053,-3.504,-3.5027,-3.493,-3.4929,-3.4928,-3.4954,-3.4954,-3.4955,0,0,0,0,0,0,-3.5431,-3.5377,-3.5367,-3.5325,-3.5291,-3.524,-3.522,-3.5206,-3.5168,-3.5167,-3.5127,-3.5114,-3.5073,-3.5045,-3.5056,-3.499,-3.4986,-3.4982,-3.501,-3.501,-3.501,-3.5018,-3.5035,0,0,0,0,0,-3.5432,-3.5402,-3.5355,-3.5322,-3.5306,-3.5267,-3.5245,-3.5225,-3.5186,-3.517,-3.5134,-3.5095,-3.5057,-3.5031,-3.4993,-3.495,-3.4938,-3.4935,-3.4935,-3.4936,-3.4933,-3.4911,-3.491,-3.4924,-3.4924,-3.4924,0,0,-3.5431,-3.5398,-3.538,-3.5326,-3.5297,-3.5265,-3.5254,-3.522,-3.5196,-3.5164,-3.5121,-3.5093,-3.5047,-3.5004,-3.4983,-3.4979,-3.4927,-3.4935,-3.4936,-3.4932,-3.491,-3.4909,-3.4908,-3.4923,-3.4923,-3.4924,0,0,-3.5414,-3.5386,-3.5358,-3.5331,-3.5289,-3.5264,-3.5257,-3.5209,-3.5191,-3.5148,-3.5125,-3.5095,-3.5028,-3.4998,-3.4973,-3.4951,-3.4933,-3.4939,-3.4941,-3.4921,-3.492,-3.4919,-3.4912,-3.491,-3.4937,-3.4937,-3.4937,0,-3.5418,-3.5372,-3.5344,-3.5313,-3.529,-3.5266,-3.5237,-3.521,-3.5156,-3.514,-3.5138,-3.5059,-3.5025,-3.4976,-3.4972,-3.4952,-3.4943,-3.4945,-3.4923,-3.4921,-3.492,-3.4913,-3.4911,-3.4938,-3.4938,-3.4938,-3.4938,0,-3.5379,-3.5348,-3.5329,-3.5284,-3.5259,-3.5229,-3.5196,-3.5173,-3.5157,-3.5132,-3.5089,-3.505,-3.5005,-3.4992,-3.4972,-3.4941,-3.494,-3.4931,-3.4926,-3.492,-3.4913,-3.491,-3.494,-3.4939,-3.4939,-3.4938,0,0,-3.5369,-3.5314,-3.5307,-3.5288,-3.5243,-3.5217,-3.5186,-3.5146,-3.5129,-3.5093,-3.5067,-3.5015,-3.5008,-3.498,-3.4957,-3.494,-3.4927,-3.4932,-3.4931,-3.4934,-3.4893,-3.4901,-3.4898,-3.4916,-3.4916,-3.4915,-3.4897,0,-3.5347,-3.5295,-3.5272,-3.5229,-3.52,-3.5179,-3.5152,-3.5121,-3.5098,-3.5069,-3.5041,-3.5006,-3.4998,-3.4982,-3.4964,-3.4933,-3.4919,-3.4934,-3.489,-3.4889,-3.4903,-3.4894,-3.4901,-3.4886,-3.4894,-3.4894,-3.4893,0,-3.5313,-3.5284,-3.524,-3.5203,-3.519,-3.5167,-3.5131,-3.5103,-3.5068,-3.5052,-3.5025,-3.5005,-3.4971,-3.497,-3.4924,-3.4935,-3.4916,-3.4898,-3.4897,-3.4891,-3.489,-3.4889,-3.488,-3.4878,-3.4888,-3.4889,-3.4889,0,-3.5313,-3.5262,-3.523,-3.5214,-3.5169,-3.5154,-3.5133,-3.5099,-3.5078,-3.5045,-3.5032,-3.4994,-3.4973,-3.4945,-3.4915,-3.4917,-3.4872,-3.4867,-3.4858,-3.4859,-3.4848,-3.4849,-3.4837,-3.4835,-3.4836,-3.4836,-3.4836,0,-3.5291,-3.5265,-3.5231,-3.5211,-3.5182,-3.5155,-3.5126,-3.5104,-3.5075,-3.5049,-3.5027,-3.5003,-3.4966,-3.4937,-3.4914,-3.488,-3.487,-3.4856,-3.485,-3.4858,-3.486,-3.4845,-3.4845,-3.4835,-3.4835,-3.4835,-3.4835,0,-3.5285,-3.5261,-3.5225,-3.5187,-3.5177,-3.5158,-3.5124,-3.5104,-3.5082,-3.5051,-3.5042,-3.5006,-3.4971,-3.494,-3.4892,-3.4877,-3.4843,-3.4835,-3.4857,-3.4853,-3.4846,-3.4848,-3.4823,-3.4819,-3.4821,-3.4821,-3.4821,0,-3.5272,-3.5253,-3.5215,-3.5199,-3.5181,-3.5154,-3.5135,-3.5108,-3.5088,-3.5049,-3.5034,-3.5,-3.497,-3.4917,-3.4885,-3.485,-3.4841,-3.4835,-3.4835,-3.4845,-3.4842,-3.4844,-3.4843,-3.4835,-3.4835,-3.4835,-3.4835,0,-3.5253,-3.5244,-3.5218,-3.5189,-3.5168,-3.5143,-3.5116,-3.5104,-3.5072,-3.5051,-3.5019,-3.4997,-3.4952,-3.4918,-3.4881,-3.4857,-3.4841,-3.4837,-3.4832,-3.484,-3.4854,-3.4848,-3.4859,-3.4836,-3.4836,-3.4836,-3.4836,-3.4836,-3.5244,-3.5227,-3.52,-3.5173,-3.5152,-3.5129,-3.511,-3.5088,-3.5062,-3.5026,-3.5012,-3.4979,-3.4947,-3.4896,-3.4874,-3.4847,-3.4843,-3.4837,-3.4835,-3.4834,-3.4837,-3.486,-3.4839,-3.4839,-3.4839,-3.4839,-3.4839,0,-3.5225,-3.5208,-3.5184,-3.5151,-3.513,-3.5122,-3.5093,-3.5076,-3.5049,-3.5022,-3.4996,-3.496,-3.4928,-3.4897,-3.4863,-3.4848,-3.484,-3.484,-3.4841,-3.4836,-3.4841,-3.4849,-3.4848,-3.4848,-3.4848,-3.4848,-3.4848,-3.4848,-3.5213,-3.5185,-3.5173,-3.5136,-3.5117,-3.5089,-3.5074,-3.5053,-3.5032,-3.4995,-3.497,-3.4951,-3.4923,-3.4888,-3.4859,-3.485,-3.4839,-3.4841,-3.4831,-3.4836,-3.4835,-3.4835,-3.4842,-3.4839,-3.4839,-3.4828,-3.4828,-3.4828]}]]